Theta_e
310 314 314 315 315 314 313 312 312 312 312 312 312 313 313 312 311 312 312 310 309 309 311 311 311 310 310 310 310 309 309 309 308 309 310 310 311 310 311 312 312 312 314 315 315 315 315 315 314 314 315 315 315 315 315 315 315 315 314 315 315 315 315 314 314 314 314 314 314 313 313 313 312 311 310 309 308 307 307 305 303 302 301 301 300 300
310 313 314 314 314 313 313 312 312 312 312 312 313 313 312 312 311 311 311 311 308 309 311 312 311 310 310 310 310 309 310 309 309 309 310 310 311 311 311 311 312 313 314 314 314 315 315 315 315 314 314 314 314 314 314 314 314 314 314 315 315 315 315 315 315 315 314 315 314 314 314 314 313 312 312 311 310 309 308 306 304 302 301 301 300 300
312 312 313 312 311 312 313 313 312 311 312 313 312 313 312 312 312 311 312 312 310 310 313 314 312 310 310 311 310 310 310 310 311 310 310 311 311 312 312 312 313 313 313 314 315 315 315 315 315 314 314 314 314 314 314 314 314 314 314 314 315 314 314 315 314 314 315 315 314 314 314 313 313 312 312 311 311 310 309 307 305 303 301 300 300 300
315 315 312 309 309 311 312 312 312 312 312 313 313 312 313 312 312 313 313 315 313 311 313 313 310 310 311 311 310 310 309 310 311 311 311 311 311 312 314 314 313 312 313 314 315 316 315 315 315 314 314 314 313 313 313 314 314 314 315 315 315 315 314 314 314 314 314 314 313 312 312 311 311 311 311 310 310 309 308 307 306 304 302 300 300 300
315 316 311 309 311 311 312 311 312 312 312 313 313 312 313 312 312 312 312 314 313 313 315 313 311 314 315 314 315 312 309 310 309 310 310 310 312 313 314 314 312 313 314 315 315 316 315 315 314 314 314 313 313 313 314 314 314 314 314 315 314 314 314 314 314 314 313 313 312 311 310 310 309 309 309 309 309 308 307 307 307 306 303 301 300 300
313 312 309 312 313 312 312 312 313 314 313 312 313 313 312 312 312 312 313 312 313 317 317 313 314 318 317 317 320 319 314 313 310 309 310 310 313 313 311 312 314 314 315 315 315 316 315 314 314 314 313 313 314 314 314 313 313 313 313 313 313 313 313 314 313 313 313 313 312 312 311 311 310 310 310 310 310 309 309 308 308 306 305 303 301 300
313 311 310 314 315 314 312 312 315 314 312 313 316 317 313 311 312 313 313 312 315 319 313 311 316 317 315 316 321 322 320 320 317 313 311 309 311 311 310 311 314 316 316 315 316 315 314 313 313 313 313 314 314 314 313 313 313 313 312 313 312 313 313 313 313 313 312 312 312 312 312 312 312 312 312 312 311 310 310 309 308 307 306 304 302 301
314 312 311 312 312 314 313 312 314 312 312 315 315 318 318 315 314 313 312 312 315 317 313 313 316 316 315 315 317 318 318 319 317 315 312 309 309 311 311 312 314 316 316 315 316 314 313 313 313 313 314 314 314 314 313 313 313 312 312 313 312 312 312 312 312 312 312 312 312 312 312 312 312 312 312 312 311 311 310 309 308 308 307 305 303 302
313 315 315 313 312 314 315 314 316 312 313 315 313 314 316 315 314 312 313 315 314 314 315 315 315 317 317 315 316 315 314 318 317 315 314 310 310 311 312 314 315 316 316 314 314 313 313 313 313 314 314 314 314 314 313 313 313 312 312 312 312 312 312 312 312 312 312 312 312 312 311 312 312 311 311 310 310 310 310 309 308 308 307 306 304 303
311 314 313 315 316 315 314 315 317 316 314 313 312 313 315 316 315 314 315 316 316 317 316 315 315 317 319 318 319 316 315 321 320 316 313 310 310 312 314 315 315 316 315 313 313 313 313 314 314 314 314 314 313 313 313 313 313 312 311 311 311 311 311 311 311 311 312 311 311 311 311 311 311 310 310 309 309 309 309 309 308 308 307 306 305 304
309 308 307 312 314 313 315 313 310 313 312 309 312 316 318 318 316 316 318 316 316 318 318 317 316 316 318 319 321 320 319 320 319 317 317 314 312 312 315 315 314 315 314 313 313 313 314 314 313 314 313 313 313 312 313 312 312 312 312 312 311 310 310 311 311 311 311 311 311 311 311 311 310 310 309 309 309 309 308 308 308 308 307 307 306 305
309 308 310 312 309 308 314 312 306 307 307 308 315 318 317 319 316 316 319 317 316 319 318 317 315 314 317 317 319 321 317 316 317 319 323 324 317 313 314 314 313 314 314 313 314 314 314 313 312 313 312 313 313 313 313 312 312 312 312 312 311 311 310 310 310 310 310 310 310 311 311 310 310 309 309 309 309 309 309 308 308 308 307 307 307 306
314 313 312 310 308 308 313 315 311 309 308 310 316 316 314 318 318 317 319 317 317 319 315 313 313 313 315 315 316 317 316 317 315 312 316 319 315 312 313 314 314 314 314 314 314 314 313 313 312 312 312 313 313 313 313 313 312 313 312 312 312 311 310 310 309 310 310 310 310 310 310 310 309 309 309 309 309 309 309 309 308 308 308 308 307 307
318 316 311 310 311 310 312 314 314 314 313 311 314 316 315 318 318 318 321 318 316 318 314 311 313 315 316 318 318 316 314 314 311 308 310 311 310 310 312 313 314 315 314 314 314 313 313 313 312 313 313 313 313 313 313 313 313 313 312 312 312 311 311 310 310 309 309 310 310 310 310 310 309 309 309 309 309 309 309 309 308 309 309 308 308 308
317 317 315 314 314 312 311 312 315 319 315 310 314 317 316 319 321 321 323 320 318 320 313 309 314 319 320 320 320 318 311 308 309 309 309 309 309 310 311 313 314 314 314 314 314 313 312 312 312 313 313 313 313 313 313 313 313 313 312 312 311 311 311 311 310 309 309 309 309 309 309 309 310 309 309 309 309 309 309 309 309 309 309 309 309 308
315 318 318 312 310 310 311 310 313 317 316 311 314 316 315 318 320 318 319 320 318 317 313 312 316 319 317 316 316 316 311 308 308 307 306 309 311 311 312 313 314 314 314 314 314 314 312 311 311 311 312 312 313 313 313 313 313 313 313 312 311 311 311 311 311 311 310 309 308 308 309 309 309 309 309 309 309 309 309 309 309 309 309 309 309 308
315 318 317 309 308 310 309 309 309 312 315 313 313 316 315 315 316 315 318 319 315 315 316 316 318 317 317 317 315 317 318 314 313 312 308 308 310 311 312 313 314 313 313 313 314 314 312 310 310 311 312 312 312 313 313 313 313 313 313 312 312 311 310 310 311 311 311 310 309 308 308 308 308 309 310 310 310 309 308 308 308 308 309 309 309 309
315 316 316 312 312 310 304 306 308 307 310 314 315 316 313 312 314 315 317 319 316 316 317 316 317 316 317 319 316 318 322 319 319 319 312 307 308 310 312 313 313 312 312 313 313 313 313 312 312 312 313 313 312 312 312 312 312 312 312 312 312 311 310 310 310 310 310 310 310 309 308 308 308 308 309 309 310 309 308 307 308 308 308 309 309 309
315 313 316 315 313 311 306 308 312 308 306 311 313 313 312 314 315 315 317 318 317 317 318 317 318 317 316 318 316 316 318 318 318 318 317 314 310 310 312 313 312 312 312 313 313 313 313 313 314 314 314 313 311 310 311 312 312 311 312 311 311 311 311 310 309 308 308 308 309 309 308 308 308 308 308 308 308 309 308 308 308 308 308 308 308 308
314 313 316 315 311 313 313 313 317 315 309 308 309 310 312 313 314 314 317 318 317 318 318 318 319 318 317 317 316 316 317 318 318 317 319 318 310 309 311 311 311 312 312 312 313 313 313 313 314 314 314 312 310 310 310 311 311 311 310 310 309 310 310 310 309 309 309 308 308 309 309 308 308 307 307 307 306 307 308 308 308 308 308 308 308 308
314 314 315 314 313 314 316 316 318 319 315 312 312 312 312 312 314 314 314 315 316 316 317 318 318 318 319 318 316 316 318 319 318 316 317 314 308 308 311 310 311 312 311 311 311 312 312 313 313 313 313 312 311 311 310 310 310 310 310 310 309 308 308 309 309 309 309 309 308 309 309 309 309 308 308 307 306 306 307 308 308 308 308 308 308 308
316 317 315 316 317 316 318 318 317 317 316 314 314 314 313 313 315 315 314 315 315 314 316 317 317 318 322 322 317 315 316 317 315 315 315 311 307 309 311 310 311 310 309 309 309 310 310 310 310 312 312 312 311 311 310 308 308 309 309 310 309 308 307 307 307 308 308 308 308 308 308 308 308 308 307 307 307 306 306 307 308 308 307 308 308 308
315 317 316 316 316 316 316 316 315 314 314 314 314 314 314 314 314 315 316 316 316 315 315 316 316 318 321 322 318 315 316 314 311 311 311 308 308 311 311 310 309 308 307 306 305 306 306 306 308 309 310 311 311 311 310 309 307 307 307 308 308 309 307 306 307 306 306 306 307 307 307 306 306 306 306 306 306 307 306 307 307 307 307 308 308 307
311 313 315 315 315 316 316 316 314 312 312 314 314 314 313 313 314 315 315 315 316 316 316 318 318 319 323 324 318 315 314 312 310 309 308 307 308 309 307 305 304 303 303 303 302 303 304 305 306 306 307 308 308 309 309 308 308 307 306 306 306 307 307 307 307 307 307 306 306 306 306 306 306 305 305 306 306 306 307 307 306 306 306 306 306 307
310 312 314 314 315 316 316 317 314 312 313 314 315 315 313 313 314 314 313 314 314 315 316 317 317 318 324 324 318 315 315 314 312 308 303 302 302 302 301 300 300 299 300 300 301 301 302 302 302 302 303 303 304 305 306 306 306 306 305 305 305 305 305 305 306 307 307 306 306 306 305 305 305 305 305 305 306 306 306 306 306 305 305 304 304 305
310 312 313 314 316 316 315 315 314 314 315 313 313 315 314 313 314 313 314 314 314 315 315 316 315 315 318 319 317 316 314 312 308 301 297 297 297 296 296 297 297 298 298 298 299 299 299 299 299 299 299 299 300 301 302 303 303 304 304 304 304 304 304 304 305 305 305 305 306 306 305 305 305 304 305 305 305 306 305 304 304 304 304 303 303 303
308 311 312 313 314 314 314 314 313 313 314 313 313 314 313 313 312 312 313 313 314 315 314 315 315 314 314 314 313 310 306 304 301 296 294 295 294 294 294 294 295 296 296 296 297 297 298 298 297 297 297 297 297 298 299 300 300 301 301 302 302 303 303 304 304 304 304 305 305 305 304 303 304 304 304 305 305 305 305 304 304 304 304 303 302 302
307 308 310 311 311 311 312 311 311 311 311 311 312 312 312 312 311 311 312 312 312 313 314 314 314 312 314 312 306 299 298 298 297 295 294 294 293 293 294 294 295 295 295 295 295 295 295 295 295 296 295 296 296 296 296 297 297 298 298 299 300 301 302 303 303 303 303 304 304 305 303 302 302 302 303 304 304 304 305 305 305 305 304 303 302 302
306 305 307 309 309 309 309 308 308 309 309 310 310 310 311 311 311 311 311 311 312 312 312 313 312 312 313 307 298 295 295 295 295 294 293 293 293 293 293 294 294 294 294 294 294 294 293 293 294 294 294 294 294 294 294 295 295 295 296 297 297 298 299 300 301 303 303 302 302 303 303 302 301 300 301 302 303 303 304 304 304 304 303 302 302 301
304 305 306 306 305 305 305 305 306 307 307 307 308 309 310 310 310 310 310 310 310 311 311 310 311 311 307 298 294 295 294 293 294 294 293 292 292 292 293 293 293 294 294 294 293 293 292 292 293 293 293 293 292 292 292 292 293 293 293 294 295 296 296 297 299 301 302 302 301 301 302 302 301 300 300 300 301 302 302 303 303 303 303 302 301 301
304 305 305 304 303 303 303 304 304 305 305 306 306 307 307 307 308 308 308 308 308 309 309 308 310 309 300 293 293 294 293 293 294 293 293 292 292 292 292 293 293 293 293 293 293 293 293 293 292 292 292 292 292 291 291 291 291 291 291 292 292 293 294 295 296 298 299 300 301 301 300 301 301 301 300 299 299 300 300 301 301 302 302 301 301 300
301 301 301 301 301 301 302 302 302 302 303 303 303 304 304 304 305 304 305 306 305 306 307 308 309 304 296 293 293 293 293 293 293 293 293 293 292 293 292 292 293 293 293 293 293 293 293 293 292 292 291 291 291 291 290 290 290 290 290 290 291 291 292 293 294 295 296 297 299 300 300 299 300 299 299 298 298 298 299 299 299 300 300 300 300 299
298 298 299 299 299 300 300 300 300 300 301 300 300 302 302 302 303 303 304 303 301 302 304 304 302 297 293 293 293 292 292 292 292 292 293 292 292 293 293 292 292 293 293 292 292 292 292 292 292 291 291 290 290 290 289 289 289 290 290 290 290 290 291 291 292 293 293 295 296 297 298 298 299 298 298 298 297 297 296 297 297 298 298 298 299 298
297 298 298 298 298 298 298 299 299 299 298 299 300 303 303 302 303 303 301 298 297 298 299 297 295 294 293 294 293 292 292 292 292 292 291 292 293 293 292 292 292 292 293 292 292 292 291 291 291 290 290 290 289 289 289 289 289 289 289 289 289 289 290 290 291 291 292 293 294 295 295 296 297 297 298 298 297 296 295 295 296 296 296 297 297 297
296 296 296 296 297 296 297 298 297 297 298 299 300 299 299 299 300 299 296 294 295 296 295 294 294 294 293 293 293 293 292 292 292 291 291 293 293 292 292 292 292 292 292 292 292 292 291 290 290 289 289 289 289 289 289 289 289 289 289 289 289 289 289 289 289 290 290 291 292 293 293 294 295 296 296 297 298 297 295 294 294 295 295 295 296 296
295 295 295 296 296 296 297 298 297 297 299 301 299 297 297 298 297 297 296 294 294 294 294 293 294 294 293 293 293 292 292 292 291 291 291 293 292 291 292 292 292 291 291 292 292 291 290 290 289 289 288 288 288 288 288 288 288 288 288 288 289 289 288 288 288 289 289 290 290 291 291 292 293 294 295 296 297 298 297 295 294 293 294 294 295 295
295 295 295 296 297 297 297 297 298 297 299 301 299 296 296 296 296 297 297 295 292 292 293 294 294 294 294 292 292 291 292 292 291 291 293 293 291 290 291 292 292 291 291 291 291 290 289 289 289 288 288 288 288 288 288 288 287 287 287 288 288 288 288 288 288 288 288 288 289 289 290 291 291 293 294 295 296 297 297 297 295 294 293 293 293 294
295 295 296 296 297 298 299 298 299 298 299 300 298 295 294 293 295 296 296 295 292 289 290 294 295 294 294 293 292 292 292 291 290 291 292 292 290 290 290 291 292 292 291 291 290 289 288 288 288 288 288 288 288 287 287 287 286 287 286 287 287 287 287 287 287 287 287 287 287 288 289 290 291 291 293 294 296 296 297 297 296 295 293 292 292 292
295 295 296 297 297 299 299 300 299 299 299 299 297 296 293 292 293 295 295 297 293 287 288 294 295 294 294 293 292 292 292 291 290 290 291 290 290 290 290 291 292 291 291 290 288 288 287 287 287 287 287 287 287 287 286 286 286 286 286 286 286 286 286 286 286 286 286 286 287 287 287 288 290 291 291 293 295 296 297 297 296 296 295 293 292 292
295 295 296 297 298 298 298 298 297 297 298 298 296 294 292 291 292 294 296 296 292 287 289 293 294 293 293 292 292 292 292 292 290 290 290 290 290 290 290 291 291 291 290 289 288 287 287 287 286 286 286 286 286 286 286 286 285 285 285 286 286 286 286 286 286 286 286 286 286 286 286 287 288 289 290 291 293 294 296 296 296 296 295 294 292 291
295 294 294 295 295 295 295 295 295 294 297 299 295 292 291 291 292 293 294 293 290 289 290 292 292 292 292 292 292 292 292 291 290 290 290 290 290 290 290 290 291 290 289 289 288 287 286 286 286 286 286 285 285 285 285 285 285 285 285 285 285 286 285 285 285 285 285 285 285 286 286 286 286 287 288 290 291 292 294 295 295 295 295 295 293 292
293 293 293 294 294 293 294 294 293 293 294 296 294 292 291 292 293 294 293 291 290 290 291 291 291 291 291 292 292 292 292 291 290 290 290 290 290 289 290 290 290 289 288 288 288 287 286 286 285 285 285 285 284 284 284 284 284 284 285 285 285 285 285 285 285 285 285 285 285 285 285 285 286 286 287 288 289 291 292 293 294 294 295 295 294 293
293 293 293 294 294 292 292 293 293 294 293 292 292 293 292 294 295 294 291 290 290 291 291 290 290 290 290 291 291 292 292 291 291 291 291 290 290 289 289 289 289 288 287 287 287 286 286 285 285 285 284 284 284 284 284 283 283 283 284 284 285 285 285 285 285 285 285 285 285 285 285 285 285 286 286 286 287 288 290 291 292 292 293 294 294 293
293 293 292 293 293 292 291 292 294 295 293 291 291 292 293 293 293 291 290 290 291 291 291 290 290 289 290 290 291 291 291 291 291 291 291 290 290 289 289 289 288 287 287 286 286 286 285 284 284 284 284 284 284 284 284 283 283 283 283 284 284 284 284 284 285 285 285 285 285 285 285 285 285 285 285 285 285 286 287 289 290 291 291 292 293 293
293 293 291 292 292 292 292 293 293 292 291 291 291 291 291 291 291 291 291 290 290 291 290 289 289 289 289 289 290 291 291 290 291 291 291 290 289 288 288 288 287 286 286 286 286 286 285 284 283 283 283 283 284 284 284 283 283 283 284 284 284 283 283 283 283 284 284 285 285 285 285 285 285 285 285 285 285 285 285 286 288 289 290 291 291 292
291 291 290 290 291 291 291 291 291 290 290 291 291 291 291 291 291 291 290 289 289 290 290 289 289 289 289 289 290 290 290 290 291 290 290 288 287 287 287 286 286 285 285 285 285 285 284 283 283 283 283 283 284 284 283 283 283 283 283 284 283 282 281 281 282 283 283 284 284 284 284 284 284 284 284 285 285 285 285 285 286 287 288 289 290 291
290 290 290 290 291 291 290 290 290 290 290 291 291 291 291 291 291 290 290 289 289 289 289 289 289 288 288 289 289 289 289 289 288 287 287 286 285 285 285 285 284 284 283 283 283 283 282 282 282 282 282 282 283 283 283 283 283 283 282 283 282 281 280 280 281 281 282 283 283 283 284 284 284 284 284 284 284 285 285 285 285 285 286 287 289 290
290 290 290 290 290 290 290 290 290 290 290 290 290 290 290 290 291 290 290 289 289 289 289 288 288 288 288 287 287 286 286 286 285 284 284 283 284 284 284 283 283 283 283 283 282 282 281 281 281 281 281 281 282 282 282 282 282 282 282 282 281 279 278 278 279 280 280 282 282 283 283 283 283 284 283 284 284 284 285 285 285 285 285 286 287 288
290 290 290 290 290 290 290 290 290 290 290 290 290 290 290 290 290 289 289 289 288 288 288 288 288 287 286 285 284 284 283 284 283 282 282 282 282 283 282 282 282 282 282 282 282 281 280 280 280 279 279 280 281 281 280 280 281 281 281 280 278 276 276 277 277 277 278 280 281 281 282 282 282 283 282 283 283 284 284 284 284 284 285 285 286 287
290 290 290 290 290 290 290 290 290 290 290 290 290 290 289 289 288 288 288 287 287 287 286 286 286 286 285 284 283 282 281 282 282 281 280 281 281 281 281 281 280 280 281 281 280 279 278 278 278 277 277 278 279 278 277 278 279 280 279 277 275 274 274 274 274 275 276 278 279 280 281 281 281 281 281 281 282 283 283 284 284 284 284 285 285 286
290 290 290 290 290 290 290 290 290 290 289 290 290 289 288 288 287 287 286 285 285 284 284 283 283 284 284 283 282 281 280 280 280 280 279 280 280 280 280 279 278 278 279 278 277 276 276 276 275 275 275 276 276 275 275 275 276 278 277 275 273 272 272 272 272 273 274 275 276 277 277 278 279 280 280 281 281 281 282 283 283 284 284 285 285 285
Wind_Speed
9 5 3 6 10 15 16 12 14 14 7 4 3 5 7 7 9 9 12 10 1 3 7 11 19 16 15 15 12 24 29 19 24 32 34 35 35 35 37 41 44 47 50 47 44 43 42 43 42 41 41 40 41 40 40 41 40 40 39 39 39 39 41 43 45 45 46 46 47 48 48 48 49 49 50 50 50 49 48 47 47 47 46 44 43 43
6 7 8 12 17 14 9 7 10 10 6 5 5 7 7 7 12 10 11 12 0 1 7 8 18 19 15 14 12 19 20 18 23 25 29 35 37 37 36 39 45 48 50 47 45 43 40 41 40 39 38 37 38 38 38 38 37 37 37 37 37 39 41 44 45 46 47 47 46 45 44 44 46 48 49 50 50 50 49 50 50 49 48 47 45 45
4 6 11 17 14 5 2 3 5 6 6 8 5 6 7 4 9 9 8 11 3 1 7 7 16 18 13 14 14 17 18 23 34 29 26 33 38 42 39 38 44 46 46 46 45 43 40 39 38 38 38 37 37 35 34 34 33 34 35 35 36 38 40 42 45 47 47 47 46 46 44 43 45 47 48 49 49 50 51 52 51 51 50 49 47 46
5 6 14 18 10 5 5 3 6 2 4 6 5 5 8 3 5 8 5 6 4 3 7 10 16 15 11 14 14 21 25 27 34 32 31 36 39 45 46 43 40 40 43 45 44 41 38 37 36 36 36 35 35 34 33 32 32 32 33 33 35 37 38 39 43 46 47 47 47 47 46 46 46 46 47 49 51 52 53 53 52 53 53 51 49 47
10 7 9 10 7 7 9 3 3 3 6 7 8 7 10 9 10 10 5 7 6 5 5 7 15 13 7 9 9 13 16 18 25 29 32 37 42 48 49 44 39 38 43 44 41 37 34 34 34 33 33 33 33 33 33 32 31 31 31 31 33 35 36 38 41 43 46 48 49 49 48 48 48 48 48 51 54 56 56 55 54 54 54 52 50 49
10 8 3 3 4 7 7 7 6 6 8 8 6 10 16 15 11 10 8 7 6 5 4 5 8 10 2 6 6 6 3 7 14 17 23 35 44 43 36 35 38 38 38 37 35 32 31 31 30 29 28 27 28 29 29 30 30 31 30 31 32 33 35 37 39 42 46 48 49 50 51 50 50 50 51 52 54 55 55 54 54 54 53 53 52 51
5 7 5 5 6 6 5 6 7 9 8 9 5 11 15 12 9 11 9 4 2 5 3 4 1 10 6 3 7 7 3 7 10 10 18 31 36 27 19 25 32 32 31 29 28 28 28 27 25 24 22 22 23 23 23 26 27 29 30 30 32 33 34 36 39 41 44 47 49 51 51 51 50 50 50 50 49 50 50 51 52 52 53 54 54 53
4 3 3 4 4 6 4 6 7 10 6 7 4 7 9 8 9 8 5 4 4 4 3 2 4 6 12 5 5 7 6 7 12 13 17 21 20 18 18 26 29 27 27 26 27 25 22 23 24 25 25 25 25 24 22 22 23 25 28 29 31 33 34 36 38 41 43 45 47 49 49 49 50 49 48 47 47 47 48 49 50 51 53 54 54 54
3 4 5 6 5 4 6 6 7 12 6 6 2 5 5 5 5 4 4 5 2 4 4 4 5 2 12 6 3 1 4 7 13 16 16 14 15 19 23 27 25 22 23 22 22 21 21 24 27 27 27 26 25 26 26 22 20 23 26 29 32 33 35 37 38 40 42 43 45 46 47 48 48 48 48 48 47 47 48 48 50 51 52 53 54 54
1 3 6 8 6 5 8 4 8 13 8 4 5 5 4 4 2 4 4 3 3 4 5 6 6 2 11 7 4 4 2 7 11 12 11 10 15 23 25 24 20 17 17 17 20 25 26 26 25 24 23 23 24 26 27 25 21 21 25 29 32 34 36 37 38 40 41 43 44 45 46 46 47 48 50 50 49 48 48 49 50 51 51 51 52 53
4 1 2 5 6 6 5 3 4 9 6 4 6 4 5 4 3 4 1 4 2 6 5 10 12 6 7 6 4 3 4 6 6 7 9 9 14 22 21 18 15 14 17 21 24 26 24 22 21 20 22 24 27 29 30 29 26 22 23 27 31 34 36 37 38 40 41 42 43 43 44 45 46 48 50 49 49 49 49 49 50 49 48 48 49 51
4 2 1 4 6 5 6 3 1 1 4 4 3 3 3 4 3 4 4 3 2 8 5 10 13 10 9 6 2 5 6 5 5 6 9 9 11 17 15 12 14 19 23 24 22 22 22 20 19 21 23 27 31 33 34 33 31 27 24 24 28 32 35 37 39 40 41 42 42 42 43 44 45 47 48 48 48 48 48 48 48 48 47 47 49 49
3 5 3 1 5 7 5 2 2 3 3 4 3 3 0 4 3 2 3 1 4 8 5 6 7 6 11 8 5 10 12 10 8 8 10 10 12 16 16 15 19 23 23 19 18 21 23 20 20 23 25 30 34 36 37 37 35 32 28 26 26 28 31 36 39 41 41 41 41 41 42 43 44 46 46 46 46 46 46 45 46 46 47 49 49 47
4 4 2 2 3 7 9 5 3 2 4 6 5 5 5 2 2 4 3 2 5 6 3 3 4 3 7 6 7 13 15 12 7 10 16 15 15 17 18 20 22 21 17 15 17 21 21 19 21 24 26 30 35 38 39 40 39 36 32 29 28 27 27 31 36 40 41 41 40 40 41 41 42 44 44 45 45 45 44 44 45 45 47 47 46 45
4 7 3 4 2 5 10 8 4 3 4 6 5 5 5 5 4 5 4 5 6 4 2 1 3 4 3 3 7 10 10 10 8 9 12 12 12 13 15 17 18 15 13 17 21 23 21 18 20 23 26 30 35 39 40 41 41 38 35 32 30 28 26 28 32 36 40 41 41 41 41 40 41 42 43 43 43 43 43 43 44 45 45 45 44 43
4 8 6 3 1 6 8 4 2 4 1 3 3 3 3 5 4 3 4 4 3 2 2 2 4 5 4 6 8 7 8 10 10 7 5 7 9 9 11 13 12 12 16 23 28 29 23 17 19 25 29 33 37 40 41 41 41 38 36 35 33 30 28 28 29 32 36 39 41 42 41 41 41 41 42 43 43 43 43 43 45 45 44 43 42 41
4 6 3 1 1 4 6 2 2 2 3 0 3 3 4 3 4 2 5 1 1 4 5 5 7 5 5 8 6 4 5 6 7 6 6 9 10 9 10 11 9 11 20 25 28 30 25 20 23 29 33 37 41 42 41 41 41 38 36 37 36 34 32 30 30 32 34 36 39 41 42 43 43 42 41 41 42 45 46 46 46 45 43 42 41 41
4 6 4 4 4 3 2 1 1 1 4 4 3 4 2 1 2 1 2 2 2 7 6 6 12 10 7 8 5 6 9 8 5 5 5 7 8 9 11 11 9 15 21 23 26 30 30 28 31 34 37 42 43 41 40 40 39 37 37 38 38 37 35 33 32 33 33 35 36 39 41 43 44 44 43 41 41 44 47 48 47 46 45 43 42 42
2 5 5 3 3 3 2 1 2 2 2 4 3 2 1 2 3 1 2 2 5 8 5 6 12 10 7 9 9 10 14 12 6 4 6 6 7 11 12 10 14 21 24 26 30 34 34 33 35 36 38 41 40 37 36 36 35 34 35 37 38 38 37 34 32 33 34 35 36 37 39 42 44 46 46 45 44 45 47 48 48 47 47 46 45 44
2 2 4 1 1 2 3 1 3 2 1 0 1 2 1 2 3 2 1 1 4 8 7 7 9 7 7 10 12 11 11 10 7 5 6 7 10 13 12 12 20 26 29 32 35 38 38 37 38 37 37 36 34 35 35 34 32 32 31 32 33 35 35 34 32 31 33 35 36 38 39 41 43 44 46 48 48 48 48 48 48 48 48 47 47 47
2 3 5 1 2 3 2 4 6 4 3 1 1 2 2 2 1 2 2 2 3 6 7 7 8 7 5 7 10 8 6 5 7 7 7 9 11 12 12 16 22 27 30 32 35 37 37 36 35 34 34 32 32 35 36 33 31 31 30 29 29 30 31 33 33 32 32 33 34 37 40 41 42 43 45 48 50 51 50 50 49 49 49 48 48 48
1 3 4 4 5 6 8 7 7 9 7 5 5 6 7 6 3 4 5 4 4 6 7 8 9 7 3 6 9 8 5 5 7 9 8 10 14 16 19 24 25 26 28 29 30 29 27 26 26 26 30 31 32 34 35 34 32 29 28 28 28 28 28 29 31 32 33 33 34 36 39 42 43 44 45 47 49 51 52 52 51 51 51 50 49 49
4 3 4 8 8 10 13 7 5 8 5 3 4 5 6 6 5 6 9 5 5 7 6 8 10 6 4 7 12 13 14 11 9 9 10 14 20 23 26 28 26 24 24 24 23 21 20 21 21 22 24 28 30 32 34 34 33 31 29 27 27 28 27 26 26 28 31 33 34 35 38 41 44 45 46 48 49 50 51 52 53 54 54 52 52 52
0 2 4 8 7 8 12 6 1 3 3 0 3 4 4 4 4 7 7 3 4 6 6 8 9 4 4 8 11 13 16 16 12 9 8 13 19 23 26 26 26 24 23 23 23 23 22 21 21 22 22 23 25 27 30 31 32 32 32 30 29 28 28 26 24 24 26 29 32 33 35 38 42 45 47 49 49 50 50 51 53 55 56 56 56 55
2 1 2 4 4 5 7 6 2 2 2 1 4 4 5 5 8 9 6 4 5 6 9 11 9 4 3 5 7 9 12 15 11 12 18 18 21 24 26 27 28 28 27 26 26 26 25 25 25 25 25 25 24 24 25 27 28 30 31 31 31 30 29 27 25 24 24 25 28 30 32 34 37 42 45 47 49 50 50 51 52 54 57 59 59 58
2 3 3 4 6 6 8 7 3 1 1 2 2 4 6 7 9 9 7 7 7 8 11 11 9 7 5 5 7 8 9 11 11 21 27 23 21 23 25 27 28 28 29 29 29 29 28 28 29 29 28 28 28 27 26 26 27 28 28 29 29 30 30 29 27 26 25 25 26 27 29 30 33 37 40 42 45 47 49 51 51 53 56 58 59 60
1 2 5 8 10 9 10 9 6 6 6 6 7 9 9 8 8 7 6 7 9 9 10 11 11 12 11 9 8 9 12 12 12 16 19 20 22 23 24 26 27 28 29 29 30 30 30 30 30 31 31 31 31 30 30 29 29 30 30 30 30 30 31 31 30 29 28 27 27 27 27 28 29 31 34 37 40 42 45 48 50 52 55 56 58 60
2 2 5 9 12 10 10 11 11 11 11 10 11 12 13 12 11 10 11 11 11 10 9 9 11 15 14 9 6 8 10 10 11 12 14 16 19 21 24 28 29 29 30 30 31 32 32 33 32 32 33 33 33 33 32 31 31 32 33 33 32 33 33 34 33 32 31 30 29 28 26 25 25 28 30 33 36 39 41 44 47 51 54 55 57 59
1 4 5 9 11 8 9 11 11 11 11 10 10 12 13 14 14 15 17 16 13 11 11 11 14 19 16 7 5 6 6 8 8 11 13 16 18 21 24 26 28 30 31 31 31 32 32 33 33 33 34 35 36 36 36 36 35 35 35 34 34 34 35 35 35 35 34 33 32 30 27 24 23 25 28 30 33 35 39 42 45 47 51 54 55 56
3 3 5 7 8 9 10 11 11 12 12 11 12 12 12 14 16 18 17 15 15 17 18 17 19 18 8 4 5 5 7 8 8 10 14 17 20 21 22 23 25 26 28 29 30 30 31 32 32 33 35 36 37 38 39 40 39 38 38 36 36 35 35 36 35 35 35 34 33 32 30 27 24 23 25 28 31 33 36 39 43 45 47 50 52 54
4 4 6 7 8 11 13 12 11 12 13 14 14 13 14 17 19 18 16 15 16 18 16 16 16 10 1 5 5 7 9 10 9 11 13 16 19 20 21 22 21 22 23 25 27 28 30 31 32 34 36 37 38 39 40 41 41 40 39 38 37 37 36 36 35 34 34 34 34 33 31 29 27 25 24 25 28 31 34 36 40 43 45 47 50 52
3 4 6 7 7 9 12 14 15 13 12 14 15 16 19 19 17 16 15 13 12 11 11 12 10 4 2 3 3 5 8 10 9 10 10 11 17 20 21 21 21 20 21 21 23 25 28 31 33 35 37 38 38 39 40 41 41 41 41 40 39 38 37 36 35 35 35 34 34 34 33 32 30 27 26 24 24 27 31 34 38 42 44 46 48 50
4 4 5 6 7 9 12 14 13 10 9 11 12 13 16 16 14 15 12 7 5 4 5 6 3 1 3 4 4 5 6 7 9 11 9 7 13 19 19 20 21 20 20 20 22 23 26 29 32 34 36 37 38 38 39 39 40 40 40 39 39 38 38 37 36 36 35 35 35 35 36 35 35 34 30 26 24 24 27 32 37 40 43 44 46 48
5 5 4 5 5 9 11 9 7 7 10 10 5 2 4 5 5 5 3 4 4 2 2 1 1 0 2 3 4 5 7 8 11 15 13 9 11 18 20 20 21 21 21 22 22 24 26 28 31 33 35 37 37 37 37 37 38 39 39 39 39 39 38 38 38 37 37 36 35 36 37 37 37 37 37 33 27 24 25 28 33 37 39 42 44 46
6 5 3 3 3 6 6 6 6 8 7 4 2 1 2 4 6 5 4 3 2 3 5 3 3 2 2 5 6 9 12 12 13 17 15 10 10 17 19 18 20 22 22 23 24 25 27 29 30 32 34 35 35 36 36 37 37 38 39 39 40 40 39 39 39 38 38 37 37 36 37 38 38 38 37 37 34 29 26 26 29 32 35 38 41 44
8 6 2 2 3 3 2 3 6 5 2 2 4 1 2 3 6 5 3 1 1 2 3 1 4 4 5 8 10 12 15 15 14 15 10 6 9 16 17 17 20 20 21 22 23 25 27 29 30 30 31 32 33 33 34 35 36 37 38 38 39 39 40 39 39 39 39 39 39 38 37 37 38 38 38 37 37 35 30 26 26 28 31 35 38 40
9 6 3 3 5 4 4 6 7 6 7 6 5 1 1 1 2 1 0 2 3 3 3 3 4 6 7 9 13 15 14 12 10 8 6 7 12 18 18 19 20 20 22 22 23 25 27 27 28 28 29 30 31 32 33 33 34 35 36 37 37 38 38 39 39 39 39 39 39 39 38 37 37 38 37 37 37 36 34 31 27 26 28 32 35 38
9 7 5 5 5 5 5 6 5 7 7 3 4 5 4 4 4 2 2 3 3 3 5 6 7 8 8 8 13 14 9 6 6 4 7 9 15 19 21 22 21 22 24 24 24 27 27 26 26 26 27 29 29 30 30 31 32 33 34 35 35 36 36 37 38 38 38 38 38 38 37 37 36 36 35 35 35 34 34 33 31 28 26 28 32 35
7 8 7 6 5 5 6 6 5 6 4 2 5 7 6 6 5 3 2 2 2 4 7 9 8 8 9 10 12 8 3 3 5 6 9 11 17 21 24 25 24 24 25 25 26 28 28 27 26 26 26 27 27 28 29 29 30 31 32 34 34 34 35 35 36 37 38 38 38 37 36 36 35 35 34 33 33 32 32 31 31 31 28 27 28 31
2 3 5 5 6 6 6 6 4 4 3 4 7 7 6 5 3 0 6 4 1 4 8 12 10 10 12 15 13 5 4 6 8 14 19 19 20 22 24 25 25 26 27 28 28 29 29 28 28 28 28 27 27 27 28 28 30 30 31 33 34 34 35 35 35 36 37 38 38 38 37 35 34 34 34 33 33 32 31 30 30 30 30 28 27 28
1 1 2 4 6 8 8 8 5 4 4 5 6 5 4 1 2 3 7 4 6 10 8 11 13 14 16 18 13 9 13 18 19 24 26 24 23 24 24 25 26 27 29 31 30 30 30 30 30 31 30 30 29 29 29 29 31 32 32 32 33 34 35 36 36 37 37 38 39 39 38 37 35 35 34 34 34 34 33 32 30 30 30 30 28 27
2 1 1 3 4 4 6 6 5 5 3 3 3 6 4 0 2 5 6 10 16 18 13 10 13 14 18 21 20 20 24 27 28 29 28 26 27 28 28 27 27 28 31 32 32 32 32 32 33 33 33 32 31 32 32 32 33 34 34 34 34 35 35 37 38 39 39 40 41 41 41 40 37 36 35 35 35 35 35 34 33 31 30 30 30 28
4 2 3 3 3 2 3 4 5 6 3 4 1 5 1 4 5 9 13 20 24 21 15 14 15 18 21 24 26 28 29 29 31 32 30 28 29 31 31 30 30 31 33 34 34 35 34 34 36 36 36 35 34 34 35 35 36 37 37 37 37 36 37 38 39 40 41 42 42 43 44 43 41 39 37 36 35 35 36 35 35 34 32 31 32 31
4 4 4 4 3 4 4 5 5 5 3 1 1 3 6 11 20 24 22 23 26 24 18 17 20 25 27 26 27 28 28 30 33 33 31 30 30 32 33 33 33 35 36 37 38 39 38 38 38 39 39 39 38 38 38 37 39 40 41 41 40 40 40 41 41 42 43 44 44 45 46 45 44 42 40 39 37 36 36 36 36 36 35 33 33 33
4 5 4 5 6 4 4 7 7 3 6 13 16 17 22 30 37 37 29 24 24 25 23 23 27 30 29 27 27 27 28 31 33 32 31 30 30 32 35 35 36 37 39 40 41 42 41 41 41 42 43 43 43 43 42 41 41 43 45 45 44 44 44 44 44 44 45 47 47 48 48 48 47 46 44 43 41 39 38 37 37 37 36 35 35 35
8 8 4 3 8 7 7 14 15 11 16 26 31 33 35 36 37 37 31 24 24 27 28 29 29 29 27 26 26 26 27 28 29 29 29 29 31 35 36 38 39 40 41 43 44 44 43 43 43 45 46 48 48 47 46 46 45 46 48 48 48 47 46 46 47 48 48 49 50 51 51 52 51 49 47 46 46 44 41 39 38 38 38 37 37 37
12 14 8 7 10 10 10 14 13 12 19 28 30 32 34 35 36 36 32 28 28 29 29 28 27 26 24 22 21 21 22 23 24 27 29 31 34 37 39 41 43 43 44 45 46 46 46 45 46 47 48 50 52 51 50 50 50 51 52 52 51 49 47 47 49 50 51 52 53 53 54 54 54 53 51 48 48 47 45 42 39 38 39 39 38 39
7 7 7 9 10 10 12 15 15 17 25 29 29 30 32 35 37 35 32 29 28 26 25 26 25 24 22 19 18 19 21 23 24 27 30 33 37 40 42 44 45 46 47 48 48 48 47 47 48 49 50 52 54 54 53 53 53 54 54 55 53 49 48 50 51 52 54 55 55 55 56 56 56 55 52 50 48 48 48 46 42 40 40 40 39 40
7 3 4 5 7 10 13 15 16 17 19 24 29 30 27 27 28 26 23 23 22 23 24 25 23 22 20 20 20 21 24 27 29 30 32 36 39 42 44 45 46 47 49 50 50 49 48 49 50 50 51 54 57 57 56 57 57 57 56 55 52 48 49 52 53 54 56 58 58 58 57 56 56 54 51 50 49 48 49 49 46 43 41 41 40 41
8 6 6 5 6 9 10 12 14 11 9 15 23 22 18 17 18 19 20 20 20 21 22 23 24 25 24 23 24 26 28 31 34 34 35 38 41 43 45 45 46 48 50 51 51 50 49 50 50 50 53 56 58 57 57 58 59 60 59 56 52 50 51 53 54 57 60 61 60 60 57 56 55 53 51 50 50 50 50 50 49 46 44 42 42 42
12 10 10 8 8 12 16 21 21 13 10 16 21 18 15 17 18 18 19 20 20 21 21 22 25 27 28 29 29 29 30 33 36 37 37 40 43 44 45 45 46 48 50 51 51 51 51 51 51 51 54 57 58 57 58 59 62 64 62 58 54 53 54 54 55 58 61 60 60 59 56 54 54 53 53 52 51 49 49 50 51 50 47 44 42 43
Wind_Direction
173 172 172 195 210 220 227 210 214 233 246 266 262 253 254 260 264 255 264 270 211 286 257 251 268 270 267 268 262 269 274 265 262 271 275 273 272 269 269 270 271 271 275 281 282 282 281 280 280 279 277 276 273 272 270 269 268 266 263 260 258 256 253 249 245 243 242 241 238 236 236 236 235 234 233 233 232 232 232 231 231 231 230 229 228 228
174 200 215 214 218 224 230 210 222 248 281 282 257 266 264 252 266 266 273 279 247 255 259 247 271 274 267 269 264 263 269 262 254 256 266 273 276 273 269 269 272 274 277 281 281 283 284 283 284 283 281 278 276 275 273 272 271 268 264 260 259 256 252 250 248 246 244 243 243 242 242 241 238 235 235 235 234 233 231 231 230 230 230 229 228 228
213 223 231 227 229 256 328 135 183 225 243 255 251 278 277 252 278 276 264 285 324 224 276 283 275 273 266 261 255 250 248 252 256 254 259 268 273 274 271 268 270 274 277 280 283 287 288 287 288 287 286 285 283 280 277 275 272 268 264 261 258 254 252 251 249 248 247 247 247 246 244 242 239 237 236 236 235 233 231 231 230 230 230 229 228 228
231 233 235 234 233 257 273 110 114 210 239 234 226 254 269 251 275 270 264 315 328 236 274 293 284 279 262 251 245 245 245 252 260 263 263 260 260 267 269 268 268 272 277 282 287 291 293 293 294 293 292 291 288 285 281 277 272 268 266 263 259 256 254 251 249 249 248 247 245 243 241 239 238 237 236 234 234 232 231 230 230 230 230 229 228 228
239 240 233 228 212 214 245 243 147 246 263 230 210 224 256 251 247 255 289 336 320 286 299 307 295 289 237 223 238 249 251 254 260 263 264 260 257 259 263 266 268 272 277 282 290 297 302 302 302 301 300 298 294 290 287 283 277 273 270 266 262 260 256 253 250 247 245 244 242 239 237 235 234 233 233 232 231 230 229 229 229 230 230 229 229 228
250 256 244 170 194 199 219 245 208 209 256 258 214 210 239 252 256 265 292 336 336 306 332 15 311 295 189 168 234 275 280 253 252 252 256 258 257 255 257 265 270 274 278 283 293 303 308 309 310 311 312 311 306 302 297 290 283 277 272 266 262 259 257 254 250 246 244 243 242 240 237 235 233 232 232 232 231 230 230 230 229 230 230 230 230 229
248 247 229 192 198 179 183 251 220 191 241 278 233 207 230 248 259 265 275 304 294 260 287 64 332 286 296 180 221 246 235 248 252 246 248 250 255 262 266 268 272 278 284 290 298 306 311 318 327 332 338 341 333 324 307 291 282 276 270 265 261 257 256 253 250 246 244 243 243 242 241 240 239 239 239 237 235 234 234 233 231 230 230 230 230 230
202 217 221 196 175 146 171 247 213 172 203 270 235 194 209 226 237 240 237 230 241 279 287 136 131 280 287 266 210 217 208 254 264 257 255 254 268 291 287 275 274 279 287 296 303 311 324 338 346 349 352 354 349 345 328 303 284 276 271 266 262 258 255 253 250 247 245 245 244 244 243 242 243 243 244 242 238 236 235 234 233 232 231 230 230 231
160 193 206 171 134 155 201 222 173 156 191 250 175 146 171 198 214 173 170 212 261 338 290 199 139 245 276 278 59 161 203 247 259 254 259 268 286 290 282 279 279 282 292 301 312 329 344 348 349 349 350 352 351 353 349 331 299 279 271 266 261 257 254 251 249 248 247 246 246 245 244 244 244 244 243 242 239 237 235 233 233 233 232 231 231 231
213 209 193 153 144 206 211 196 160 163 198 221 120 98 80 79 71 105 146 146 73 312 256 194 161 208 275 277 73 67 205 237 253 258 264 274 281 279 277 279 282 291 303 315 331 339 345 350 353 356 0 3 2 5 6 356 332 297 277 267 262 258 255 252 249 248 246 246 244 244 244 244 243 241 239 238 237 237 236 234 233 233 233 233 232 233
263 76 116 171 195 200 164 133 176 176 178 141 114 71 33 34 42 63 77 94 87 277 237 182 181 187 272 279 134 165 215 222 249 277 281 281 281 279 278 282 291 306 317 330 340 344 352 1 8 16 21 18 14 14 14 10 360 335 302 280 269 262 258 254 251 249 246 245 244 244 244 244 242 240 239 238 237 236 235 235 235 235 235 235 235 234
264 176 196 224 205 161 115 97 317 138 131 127 113 78 17 328 13 34 353 60 170 264 241 182 184 189 235 256 200 260 273 237 230 257 274 282 285 287 296 306 313 320 327 340 353 2 8 10 21 31 27 20 16 13 12 11 8 358 335 307 285 271 262 257 253 250 247 245 244 244 243 243 241 240 240 240 240 239 237 236 236 236 236 236 236 235
272 216 220 224 198 178 145 123 341 5 105 133 130 129 205 307 343 347 312 114 209 259 262 184 175 205 244 260 275 277 277 257 229 227 251 271 286 297 314 319 315 319 329 348 3 9 9 11 24 28 19 15 12 9 9 7 4 0 351 333 311 290 273 262 257 253 251 248 246 245 243 242 241 240 241 241 241 241 241 240 239 237 237 237 236 236
289 259 174 110 244 199 168 174 236 247 171 164 156 159 177 197 257 258 252 260 255 269 280 187 173 257 277 281 246 243 257 267 259 244 252 263 278 296 310 311 309 312 325 347 355 1 8 12 13 11 8 8 6 4 5 3 1 358 353 345 331 312 288 272 263 257 254 253 250 247 245 244 242 241 241 241 241 242 242 242 241 240 239 240 240 240
266 289 216 170 248 188 183 205 205 140 158 186 165 144 174 184 201 226 226 250 263 278 304 193 184 220 238 262 235 230 258 286 286 264 262 268 277 296 307 305 305 307 328 349 353 357 1 3 4 5 4 2 359 359 358 358 357 353 349 345 337 325 307 286 272 264 259 256 253 249 246 245 244 243 242 242 242 242 242 242 241 241 241 242 243 244
222 269 251 216 217 165 193 244 64 93 179 226 124 112 220 204 184 237 251 238 244 302 291 210 220 223 224 263 263 259 275 283 281 280 292 292 284 289 291 289 292 309 341 355 358 357 353 354 2 2 0 357 354 353 352 353 352 348 345 342 338 330 317 300 286 274 265 259 254 251 248 246 244 243 243 242 242 241 240 240 240 241 241 242 244 245
228 261 260 229 238 180 196 250 69 147 216 164 117 191 231 174 144 254 284 313 77 269 255 238 258 280 294 284 290 331 310 296 298 295 284 276 270 264 261 259 274 322 349 357 359 357 351 349 354 357 356 352 348 346 347 348 347 344 342 340 338 333 322 310 296 283 271 262 257 253 250 248 246 245 244 244 243 241 240 240 240 241 242 242 243 243
250 267 243 189 226 242 184 187 335 178 157 132 184 230 234 134 132 165 270 330 274 257 255 253 266 283 295 283 310 348 318 309 321 315 292 267 250 240 238 243 288 335 349 353 355 354 351 347 347 351 350 346 344 345 346 348 347 344 341 338 337 335 330 319 302 287 276 269 263 257 253 251 249 248 247 247 246 245 243 242 242 242 241 240 240 241
288 281 261 174 209 276 57 93 292 299 158 159 219 272 98 204 247 186 183 229 247 254 253 239 256 272 268 264 280 287 284 287 291 293 302 281 245 241 244 268 320 340 343 343 344 347 349 346 343 344 342 340 344 349 348 346 344 341 339 337 337 336 336 327 309 292 280 272 268 264 259 255 253 251 250 249 248 248 246 244 244 244 243 242 241 242
358 282 272 93 141 310 15 136 213 272 299 134 320 329 72 184 229 234 192 187 242 256 258 238 241 250 249 258 268 260 259 274 282 282 284 262 244 251 271 314 334 337 337 339 341 344 345 341 337 335 332 332 337 340 341 339 337 337 336 336 337 336 335 332 321 305 290 279 272 269 266 261 258 256 254 251 249 249 250 248 245 244 244 245 244 244
26 248 254 277 286 296 290 206 184 196 226 201 213 251 243 223 258 283 249 187 239 257 260 254 245 235 240 264 264 245 226 251 282 286 279 274 269 271 296 324 331 334 339 342 344 342 337 332 326 321 320 325 329 330 334 337 335 334 333 334 335 333 333 333 328 318 306 292 282 276 272 268 265 261 258 255 252 251 252 252 250 247 246 246 246 246
173 234 244 257 267 260 248 221 190 202 211 207 211 213 223 228 234 270 253 208 216 246 248 257 259 246 250 293 290 279 261 257 282 293 296 297 293 294 309 323 334 346 351 350 346 341 336 332 327 319 315 318 321 324 331 338 341 339 335 331 329 328 332 334 329 322 312 300 291 286 281 274 270 265 261 259 257 255 253 254 254 252 249 248 246 246
180 180 224 242 250 258 264 257 190 197 201 204 217 204 214 210 185 226 249 238 229 240 242 255 262 248 232 275 287 286 284 286 286 281 281 287 294 308 327 341 355 3 3 1 0 0 358 352 343 332 320 315 315 317 322 331 341 347 346 340 331 327 329 330 327 321 313 303 297 294 288 280 273 268 264 262 261 259 258 257 256 255 254 251 249 247
90 153 236 254 258 270 280 287 128 129 106 123 242 213 205 212 217 235 249 269 264 255 260 262 262 243 208 247 263 271 284 292 287 279 293 315 332 350 2 11 16 14 13 15 15 13 7 0 352 346 341 334 327 322 321 324 330 338 345 346 341 335 331 328 322 316 310 306 302 298 293 288 281 274 269 266 264 263 263 261 259 258 257 255 252 250
314 220 242 277 279 284 293 295 333 40 67 224 251 243 235 250 268 275 281 294 275 242 245 257 263 256 238 261 271 274 286 290 306 12 34 29 22 22 20 19 18 16 16 15 12 11 8 6 6 4 1 358 351 343 337 334 334 337 342 345 343 341 338 331 323 315 308 305 304 301 297 293 287 281 276 273 271 269 267 265 262 260 258 256 254 253
280 247 243 260 257 257 274 273 274 341 220 225 271 263 258 248 248 265 276 270 261 236 235 251 267 271 273 284 286 294 309 311 347 33 43 42 34 28 23 20 18 17 16 13 12 13 13 13 14 13 11 8 6 2 357 352 349 347 348 348 347 345 343 338 331 324 316 309 305 302 300 297 292 289 286 282 278 274 271 268 265 263 261 259 257 255
198 267 256 253 256 255 265 275 295 312 287 279 287 281 283 275 255 262 267 259 269 268 254 256 270 277 278 285 305 335 348 348 4 28 36 35 30 25 23 22 22 21 20 18 17 15 15 15 14 13 12 10 8 8 6 3 1 357 356 355 353 351 348 345 340 334 327 319 311 306 305 304 300 296 292 288 284 281 276 274 271 269 267 264 260 257
185 285 266 262 269 268 280 292 300 304 293 285 289 283 282 280 272 268 263 261 273 276 266 268 280 283 282 294 351 14 358 353 5 11 18 28 27 23 22 22 22 21 20 20 19 17 15 13 12 10 9 7 5 4 3 3 3 2 0 359 358 356 354 351 347 343 337 329 320 314 312 311 306 299 294 289 285 281 278 276 274 272 270 266 262 259
196 272 257 261 277 286 302 307 303 299 294 288 287 282 279 278 272 266 264 268 274 272 276 286 284 282 286 310 18 29 0 350 355 358 7 20 22 22 24 23 20 18 16 16 16 14 12 10 8 7 5 3 2 360 359 358 357 358 358 357 357 357 357 356 353 350 346 340 332 324 317 311 307 301 295 289 284 279 276 275 274 273 271 268 265 262
221 263 266 273 294 301 295 290 287 288 288 285 281 276 276 275 270 268 270 273 270 265 270 277 275 275 288 7 5 353 352 344 343 357 10 17 18 19 20 19 18 16 13 11 8 7 7 5 3 2 0 359 357 356 355 353 353 353 353 353 354 355 356 356 356 355 353 350 345 337 325 312 304 301 297 292 287 283 279 276 274 273 271 269 267 263
248 276 305 310 307 296 287 280 275 275 277 281 281 277 274 271 269 271 272 269 266 266 269 270 270 272 43 54 350 338 349 351 354 2 8 12 12 13 14 12 11 11 11 8 3 360 358 357 357 355 354 353 352 352 351 350 349 349 349 350 351 351 352 352 353 355 356 356 355 351 343 329 313 300 295 295 293 289 284 280 276 273 271 269 266 262
279 283 302 304 284 279 285 283 283 286 285 281 276 271 267 265 265 266 264 266 271 278 284 281 275 279 30 17 347 345 350 355 355 346 349 4 7 6 6 3 359 360 1 1 360 356 353 350 350 349 348 348 347 347 347 346 345 346 347 348 349 349 349 348 349 351 352 354 355 355 356 353 342 324 307 299 296 294 289 284 278 274 270 267 265 262
247 262 276 280 275 274 275 279 292 307 295 275 263 258 260 262 266 267 270 297 323 302 293 292 288 343 318 321 344 348 347 349 340 330 324 340 359 359 356 354 351 348 347 349 352 351 349 346 344 343 343 343 343 343 343 343 342 342 344 346 347 348 348 347 348 348 348 349 350 351 354 356 357 352 339 320 304 298 294 288 280 275 272 269 266 262
229 238 250 254 265 276 280 297 322 298 269 267 271 267 256 258 272 272 278 27 28 57 94 121 146 32 297 301 320 322 322 319 318 321 315 309 336 344 342 342 343 339 336 337 340 341 343 343 340 339 338 338 338 339 339 339 339 339 340 343 344 347 347 348 348 348 347 346 346 347 348 349 352 356 355 346 329 312 301 293 286 280 274 270 266 262
248 238 243 240 249 274 294 322 303 263 249 263 308 57 123 134 114 114 119 93 92 115 102 126 203 206 253 274 275 283 295 301 308 316 311 294 310 325 326 328 332 332 328 327 330 333 335 337 337 335 334 334 334 335 335 335 335 335 337 339 341 343 345 347 347 347 347 347 346 346 346 346 346 348 352 353 348 336 320 304 294 287 279 273 269 266
242 242 235 227 241 261 270 244 246 262 310 259 231 169 102 116 103 101 113 115 186 172 131 185 223 201 224 259 266 276 288 295 304 309 296 265 304 317 313 311 317 321 320 320 323 325 328 330 330 329 329 329 330 330 330 331 331 331 333 335 336 338 341 343 345 345 345 346 346 346 345 344 344 344 345 348 350 348 340 324 307 297 288 280 274 269
221 231 223 233 239 235 241 237 243 290 309 274 244 238 103 158 130 90 299 168 184 236 241 219 223 218 222 245 263 276 286 293 303 297 232 235 304 315 308 303 305 310 314 315 317 320 323 323 322 322 323 323 324 326 326 326 327 328 329 331 333 334 336 338 340 342 344 344 344 344 344 343 342 342 342 342 344 346 346 340 327 311 297 286 279 273
205 213 213 237 243 234 256 264 260 276 282 260 243 245 235 225 208 207 270 188 158 297 269 211 213 232 226 241 262 271 284 297 304 277 223 254 302 311 306 303 300 302 309 312 313 315 317 317 315 315 316 316 318 320 321 322 324 324 325 327 329 330 332 334 336 337 339 340 341 341 341 340 340 339 338 339 339 340 342 343 339 328 310 294 285 278
193 211 215 234 249 246 261 267 260 267 269 199 217 234 253 260 225 188 280 222 135 307 261 205 207 234 226 239 253 252 262 293 293 287 278 291 309 309 305 303 301 301 305 308 310 313 314 313 311 310 310 311 313 315 317 318 319 319 321 323 324 326 329 330 332 333 334 334 335 336 336 336 336 335 334 334 335 335 335 336 338 335 325 309 294 285
125 215 210 222 246 250 258 263 260 270 259 199 210 237 264 252 180 213 292 266 124 282 233 196 212 245 238 241 247 223 197 238 269 289 294 299 306 307 303 300 299 301 303 305 308 310 311 310 309 308 308 308 309 312 313 313 314 314 316 318 319 321 324 326 327 329 329 328 328 329 330 331 331 331 331 330 329 330 330 330 331 332 329 320 306 293
315 257 196 208 235 243 250 260 264 265 251 212 210 251 288 309 118 263 272 296 344 313 270 211 224 255 258 249 240 221 234 255 274 285 287 291 299 302 300 295 293 297 300 302 304 307 308 308 307 306 306 307 308 309 310 311 310 310 312 313 314 316 320 322 323 324 324 324 325 324 325 326 327 327 327 326 325 324 325 326 325 325 325 321 312 299
248 270 257 227 231 239 241 251 271 280 260 194 227 287 307 114 215 250 280 324 322 308 293 259 250 271 277 262 252 250 256 269 281 282 279 286 297 303 301 294 290 293 297 299 301 303 305 306 306 305 305 305 305 305 307 308 307 308 309 310 311 314 316 317 319 320 320 320 320 321 321 322 323 323 323 323 322 319 319 320 321 320 319 316 311 303
228 248 273 230 212 259 252 243 266 269 230 121 43 310 278 173 244 290 310 315 309 297 284 276 278 289 288 273 265 267 270 277 283 281 277 283 295 302 300 294 292 295 298 300 301 303 305 305 305 305 304 304 303 303 305 306 305 306 307 307 309 312 313 313 314 315 315 316 316 316 317 317 318 319 320 320 319 316 313 313 315 315 314 311 307 302
228 224 253 238 222 244 239 228 228 222 209 73 357 271 263 275 291 300 302 301 299 292 280 280 291 297 294 282 273 273 275 279 282 281 278 282 291 297 296 293 293 296 299 301 302 304 306 306 305 305 304 302 302 302 303 303 304 305 305 306 309 310 309 310 311 310 310 311 312 312 313 314 314 314 315 315 315 313 310 308 308 309 310 307 303 298
225 215 238 255 251 232 212 241 253 267 305 299 286 277 282 288 292 294 293 288 286 285 284 288 295 300 300 292 279 274 277 281 281 278 278 282 289 292 292 292 294 296 299 300 300 302 304 305 305 304 303 303 303 303 303 303 303 303 303 304 307 308 308 308 308 307 307 308 308 309 310 311 311 311 311 311 310 309 308 306 304 304 305 304 299 294
261 258 264 279 271 266 256 260 269 286 289 283 280 279 282 285 287 290 291 285 282 287 293 297 298 300 301 295 284 278 279 279 277 276 279 285 290 291 292 294 296 298 300 301 301 303 304 304 303 302 302 302 302 302 302 302 302 302 302 303 304 305 305 305 305 304 304 304 305 306 307 307 308 308 308 307 306 305 305 303 301 299 299 299 296 293
257 249 243 253 262 266 267 262 261 266 269 271 275 278 280 283 286 288 288 287 289 295 299 301 301 300 298 291 284 281 279 278 279 282 286 291 294 295 296 298 299 301 303 303 303 304 304 303 302 301 300 300 301 301 301 300 300 300 301 302 302 302 301 301 301 301 300 301 302 302 303 304 305 305 304 303 302 301 301 300 298 295 293 292 292 291
251 227 220 240 248 248 258 265 264 263 266 270 274 276 278 282 286 287 288 290 293 297 299 299 298 296 291 286 283 283 284 285 290 295 298 299 299 299 299 300 302 303 303 303 303 303 302 301 300 300 299 299 300 300 299 298 298 298 299 299 300 299 298 297 297 296 296 297 298 298 299 300 300 300 300 299 299 298 297 296 295 293 289 287 287 288
253 230 209 227 249 255 258 267 272 272 271 272 273 276 279 282 285 288 290 291 293 295 296 295 293 289 288 291 294 296 297 296 298 303 305 303 301 301 301 301 302 302 301 301 301 301 300 299 299 298 297 297 298 298 298 297 297 297 297 297 297 296 296 295 295 294 294 294 295 295 295 296 296 296 296 295 295 294 293 292 292 290 287 285 283 282
246 250 242 233 255 264 260 261 265 267 269 273 277 284 289 287 286 289 292 295 298 299 297 296 292 289 289 295 302 306 306 304 304 306 306 303 302 301 301 301 301 300 300 300 300 299 298 297 297 296 295 295 296 296 295 295 295 295 295 294 294 293 293 293 293 293 293 294 294 293 293 292 292 292 291 291 291 290 290 289 288 287 286 284 281 279
235 241 246 243 250 258 264 267 268 266 267 274 281 290 293 289 291 294 297 300 301 300 301 301 300 299 299 301 306 310 311 310 309 308 306 303 302 302 302 301 300 300 300 300 299 299 298 297 296 295 293 293 293 293 292 291 292 292 292 292 292 292 292 292 292 292 292 292 291 291 290 289 288 288 287 287 287 286 285 285 285 284 283 282 279 276